Regional Weather Roundup
Issued by NWS Mt. Holly, NJ

Home | Current Version | Previous Version | Text Only | Print | Product List | Glossary On
Versions: 1 2 3 4 5 6 7 8 9 10 11 12 13 14 15 16 17 18 19 20 21 22 23 24 25 26 27 28 29 30 31 32 33 34 35 36 37 38 39 40 41 42 43 44 45 46 47 48 49 50
000
ASUS41 KPHI 291610
RWRPHI

REGIONAL WEATHER ROUNDUP
NATIONAL WEATHER SERVICE MOUNT HOLLY NJ
1200 PM EDT FRI AUG 29 2014

NOTE:  "FAIR" INDICATES FEW OR NO CLOUDS BELOW 12,000 FEET WITH NO
SIGNIFICANT WEATHER AND/OR OBSTRUCTIONS TO VISIBILITY.

 * = STATION DOES NOT REPORT PRECIPITATION (E.G. RAIN, SNOW, ETC.)
        OR FOG.

NJZ015>026-291700-
SOUTHERN NEW JERSEY

CITY           SKY/WX    TMP DP  RH WIND       PRES   REMARKS
POMONA         SUNNY     74  58  57 NE7       30.19S
RIO GRANDE*    PTSUNNY   73  54  49 NE9       30.20S
MILLVILLE      MOSUNNY   74  51  44 CALM      30.20R
WRIGHTSTOWN    SUNNY     73  54  51 VRB3      30.18R
MOUNT HOLLY    SUNNY     74  51  44 NE6       30.19S
TRENTON        SUNNY     74  49  41 N6        30.19S

$$
NJZ001>014-291700-
NORTHERN NEW JERSEY

CITY           SKY/WX    TMP DP  RH WIND       PRES   REMARKS
SUSSEX         LGT RAIN  73  52  47 VRB5      30.20S
ANDOVER*         N/A     70  51  51 NE3       30.21S
MORRISTOWN     SUNNY     75  50  41 NE6       30.19S
NEWARK         MOSUNNY   75  48  38 VRB3      30.19S
TETERBORO      MOSUNNY   75  48  38 N6        30.18S
CALDWELL       SUNNY     73  49  42 N5        30.19S
SOMERVILLE     SUNNY     76  48  37 VRB3      30.18S
ALLAIRE*       MOSUNNY   73  52  46 E6        30.19S
TOMS RIVER*    MOSUNNY   72  54  53 CALM      30.20R

$$
PAZ043-044-047-054-055-060>062-066>071-291700-
EASTERN PENNSYLVANIA

CITY           SKY/WX    TMP DP  RH WIND       PRES   REMARKS
PHILADELPHIA   PTSUNNY   75  48  38 VRB3      30.20S
NORTH PHILA    SUNNY     75  47  36 VRB5      30.21S
BLUE BELL      SUNNY     73  48  40 N5        30.20R
DOYLESTOWN     SUNNY     75  50  41 MISG      30.20S
QUAKERTOWN*    MOSUNNY   73  50  43 MISG      30.21F
POTTSTOWN      MOSUNNY   73  49  42 CALM      30.21F
LANCASTER      MOSUNNY   70  51  51 VRB3      30.22S
COATESVILLE    MOSUNNY   72  54  53 CALM      30.22F
READING        PTSUNNY   73  51  46 MISG      30.20F
ALLENTOWN      MOSUNNY   74  52  46 VRB3      30.20F
MOUNT POCONO   SUNNY     66  47  50 CALM      30.23F
HAZLETON       PTSUNNY   66  52  59 NW5       30.26S
WILKES BARRE   MOSUNNY   69  52  54 NW5       30.21F

$$
DEZALL-MDZ008-012-015-019-020-291700-
DELAWARE AND EASTERN MARYLAND

CITY           SKY/WX    TMP DP  RH WIND       PRES   REMARKS
WILMINGTON     MOSUNNY   74  50  42 VRB6      30.21S
DOVER          SUNNY     73  56  54 VRB5      30.19S
GEORGETOWN     SUNNY     76  56  49 E15G21    30.19F
EASTON         MOSUNNY   75  54  46 E3        30.23F
PATUXENT       MOSUNNY   75  53  46 VRB5      30.19F
OCEAN CITY     SUNNY     78  58  49 N7        30.17F
WALLOPS ISLAND SUNNY     78  59  51 VRB6      30.18F
CAMBRIDGE      SUNNY     73  52  46 CALM      30.19S
SALISBURY      SUNNY     78  53  41 N7        30.18F

$$
PAZ001-021-NYZ056-072-MDZ011-DCZ001-291700-
OTHER NEARBY LOCATIONS

CITY           SKY/WX    TMP DP  RH WIND       PRES   REMARKS
HARRISBURG     PTSUNNY   72  52  49 SW3       30.21F
STATE COLLEGE  MOSUNNY   66  54  63 VRB5      30.23F
WILLIAMSPORT   MOSUNNY   68  52  56 S5        30.21F
BINGHAMTON     SUNNY     66  50  56 VRB6      30.23R
NEW YORK CITY  PTSUNNY   73  49  42 MISG      30.22R
BALTIMORE      PTSUNNY   74  51  44 VRB7      30.20F
WASHINGTON DC  PTSUNNY   77  51  40 VRB3      30.21F

$$



USA.gov is the U.S. government's official web portal to all federal, state and local government web resources and services.